Duncan, OK

10:00 AM CST on February 09, 2016 (GMT -0600)
Halliburton

Weather History for KDUC - September, 2013

Change the Weather History Date:

Monday, September 23, 2013

  Actual Average (KSPS) Record (KSPS)
Temperature  
Mean Temperature 68 °F 73 °F  
Max Temperature 82 °F 85 °F 102 °F (1926)
Min Temperature 55 °F 60 °F 42 °F (1989)
Degree Days  
Heating Degree Days 0 1  
Month to date heating degree days 5  
Since 1 July heating degree days 5  
Cooling Degree Days 4 9  
Month to date cooling degree days 284  
Year to date cooling degree days 2229  
Growing Degree Days 18 (Base 50)    
Moisture  
Dew Point 54 °F    
Average Humidity 61    
Maximum Humidity 94    
Minimum Humidity 35    
Precipitation  
Precipitation 0.00 in 0.09 in 1.88 in (1904)
Month to date precipitation 2.22  
Year to date precipitation 21.95  
Sea Level Pressure  
Sea Level Pressure 29.83 in    
Wind  
Wind Speed 5 mph (SSE)    
Max Wind Speed 17 mph    
Max Gust Speed 22 mph    
Visibility 10 miles    
Events      
T = Trace of Precipitation, MM = Missing Value Source: NWS Daily Summary

Daily Weather History Graph

Daily Weather History Graph

Search for Another Location

Airport or City:

Trip Planner

Search our weather history database for the weather conditions in past years. The results will help you decide how hot, cold, wet, or windy it might be!

Date:

Astronomy

Sep. 23, 2013 Rise Set
Actual Time 7:20 AM CDT 7:26 PM CDT
Civil Twilight 6:55 AM CDT 7:51 PM CDT
Nautical Twilight 6:26 AM CDT 8:21 PM CDT
Astronomical Twilight 5:56 AM CDT 8:50 PM CDT
Moon 10:12 PM CDT (9/23) 11:29 AM CDT (9/23)
Length of Visible Light 12h 56m
Length of Day
12h 05m
Waning Gibbous, 81% of the Moon is Illuminated
Sep 23
Waning Gibbous
Sep 26
Last Quarter
Oct 4
New
Oct 11
First Quarter
Oct 18
Full

Hourly Weather History & Observations

Time (CDT) Temp. Heat Index Dew Point Humidity Pressure Visibility Wind Dir Wind Speed Gust Speed Precip Events Conditions
12:15 AM 62.6 °F - 53.6 °F 72% 29.87 in 10.0 mi Calm Calm - N/A   Clear
12:35 AM 62.6 °F - 53.6 °F 72% 29.86 in 10.0 mi Calm Calm - N/A   Clear
12:55 AM 60.8 °F - 53.6 °F 77% 29.86 in 10.0 mi Calm Calm - N/A   Clear
1:15 AM 60.8 °F - 53.6 °F 77% 29.86 in 10.0 mi Calm Calm - N/A   Clear
1:35 AM 59.0 °F - 53.6 °F 82% 29.85 in 10.0 mi Calm Calm - N/A   Clear
1:55 AM 59.0 °F - 53.6 °F 82% 29.85 in 10.0 mi Calm Calm - N/A   Clear
2:15 AM 59.0 °F - 53.6 °F 82% 29.84 in 10.0 mi Calm Calm - N/A   Clear
2:35 AM 59.0 °F - 53.6 °F 82% 29.84 in 10.0 mi SE 5.8 mph - N/A   Clear
2:55 AM 60.8 °F - 53.6 °F 77% 29.83 in 10.0 mi SSE 10.4 mph - N/A   Clear
3:15 AM 60.8 °F - 53.6 °F 77% 29.82 in 10.0 mi SSE 9.2 mph - N/A   Clear
3:35 AM 60.8 °F - 53.6 °F 77% 29.82 in 10.0 mi SSE 10.4 mph - N/A   Clear
3:55 AM 60.8 °F - 53.6 °F 77% 29.82 in 10.0 mi SSE 10.4 mph - N/A   Clear
4:15 AM 60.8 °F - 53.6 °F 77% 29.83 in 10.0 mi SSE 10.4 mph - N/A   Clear
4:35 AM 60.8 °F - 53.6 °F 77% 29.83 in 10.0 mi SSE 5.8 mph - N/A   Clear
4:55 AM 60.8 °F - 53.6 °F 77% 29.83 in 10.0 mi SSE 8.1 mph - N/A   Clear
5:15 AM 59.0 °F - 53.6 °F 82% 29.84 in 10.0 mi Calm Calm - N/A   Clear
5:35 AM 59.0 °F - 53.6 °F 82% 29.85 in 10.0 mi Calm Calm - N/A   Clear
5:55 AM 57.2 °F - 53.6 °F 88% 29.85 in 10.0 mi SSE 8.1 mph - N/A   Clear
6:15 AM 57.2 °F - 53.6 °F 88% 29.85 in 10.0 mi Calm Calm - N/A   Clear
6:35 AM 55.4 °F - 53.6 °F 94% 29.84 in 10.0 mi Calm Calm - N/A   Clear
6:55 AM 57.2 °F - 53.6 °F 88% 29.84 in 10.0 mi Calm Calm - N/A   Clear
7:15 AM 55.4 °F - 53.6 °F 94% 29.84 in 10.0 mi Calm Calm - N/A   Clear
7:35 AM 55.4 °F - 53.6 °F 94% 29.84 in 10.0 mi Calm Calm - N/A   Clear
7:55 AM 57.2 °F - 53.6 °F 88% 29.85 in 10.0 mi Calm Calm - N/A   Clear
8:15 AM 59.0 °F - 55.4 °F 88% 29.86 in 10.0 mi Calm Calm - N/A   Clear
8:35 AM 60.8 °F - 55.4 °F 82% 29.85 in 10.0 mi SE 6.9 mph - N/A   Clear
8:55 AM 62.6 °F - 55.4 °F 77% 29.85 in 10.0 mi SSE 10.4 mph - N/A   Clear
9:15 AM 64.4 °F - 53.6 °F 68% 29.86 in 10.0 mi SSE 11.5 mph 16.1 mph N/A   Clear
9:35 AM 66.2 °F - 55.4 °F 68% 29.86 in 10.0 mi SSE 11.5 mph - N/A   Clear
9:55 AM 68.0 °F - 55.4 °F 64% 29.87 in 10.0 mi South 13.8 mph 18.4 mph N/A   Clear
10:15 AM 69.8 °F - 55.4 °F 60% 29.87 in 10.0 mi South 11.5 mph - N/A   Clear
10:35 AM 71.6 °F - 55.4 °F 57% 29.87 in 10.0 mi South 16.1 mph - N/A   Clear
10:55 AM 71.6 °F - 55.4 °F 57% 29.87 in 10.0 mi South 12.7 mph 17.3 mph N/A   Clear
11:15 AM 73.4 °F - 55.4 °F 53% 29.87 in 10.0 mi SSE 15.0 mph - N/A   Clear
11:35 AM 73.4 °F - 55.4 °F 53% 29.86 in 10.0 mi South 12.7 mph 20.7 mph N/A   Clear
11:55 AM 77.0 °F - 53.6 °F 44% 29.85 in 10.0 mi SSE 13.8 mph - N/A   Clear
12:15 PM 77.0 °F - 53.6 °F 44% 29.84 in 10.0 mi South 12.7 mph 21.9 mph N/A   Clear
12:35 PM 78.8 °F - 53.6 °F 42% 29.84 in 10.0 mi South 17.3 mph - N/A   Clear
12:55 PM 78.8 °F - 53.6 °F 42% 29.83 in 10.0 mi South 15.0 mph 21.9 mph N/A   Clear
1:15 PM 80.6 °F 80.3 °F 53.6 °F 39% 29.82 in 10.0 mi South 17.3 mph - N/A   Clear
1:35 PM 80.6 °F - 51.8 °F 37% 29.81 in 10.0 mi South 17.3 mph 21.9 mph N/A   Clear
1:55 PM 80.6 °F - 51.8 °F 37% 29.80 in 10.0 mi South 16.1 mph 20.7 mph N/A   Clear
2:15 PM 80.6 °F - 51.8 °F 37% 29.78 in 10.0 mi South 13.8 mph 21.9 mph N/A   Clear
2:35 PM 80.6 °F - 51.8 °F 37% 29.77 in 10.0 mi South 12.7 mph - N/A   Clear
2:55 PM 82.4 °F 81.4 °F 53.6 °F 37% 29.77 in 10.0 mi South 12.7 mph 18.4 mph N/A   Clear
3:15 PM 82.4 °F - 51.8 °F 35% 29.77 in 10.0 mi SSW 12.7 mph 17.3 mph N/A   Clear
3:35 PM 82.4 °F 81.4 °F 53.6 °F 37% 29.76 in 10.0 mi South 16.1 mph 19.6 mph N/A   Clear
3:55 PM 82.4 °F - 51.8 °F 35% 29.75 in 10.0 mi South 16.1 mph 20.7 mph N/A   Clear
4:15 PM 82.4 °F - 51.8 °F 35% 29.75 in 10.0 mi South 15.0 mph 20.7 mph N/A   Clear
4:35 PM 82.4 °F - 51.8 °F 35% 29.76 in 10.0 mi South 12.7 mph 18.4 mph N/A   Clear
4:55 PM 82.4 °F - 51.8 °F 35% 29.75 in 10.0 mi South 12.7 mph - N/A   Clear
5:15 PM 82.4 °F - 51.8 °F 35% 29.75 in 10.0 mi South 11.5 mph 15.0 mph N/A   Clear
5:35 PM 82.4 °F - 51.8 °F 35% 29.75 in 10.0 mi South 11.5 mph - N/A   Clear
5:55 PM 82.4 °F - 51.8 °F 35% 29.76 in 10.0 mi South 11.5 mph 16.1 mph N/A   Clear
6:15 PM 82.4 °F - 51.8 °F 35% 29.77 in 10.0 mi SSE 10.4 mph - N/A   Clear
6:35 PM 80.6 °F - 51.8 °F 37% 29.77 in 10.0 mi South 9.2 mph - N/A   Clear
6:55 PM 80.6 °F 80.3 °F 53.6 °F 39% 29.78 in 10.0 mi Calm Calm - N/A   Clear
7:15 PM 77.0 °F - 53.6 °F 44% 29.79 in 10.0 mi Calm Calm - N/A   Clear
7:35 PM 75.2 °F - 55.4 °F 50% 29.79 in 10.0 mi Calm Calm - N/A   Clear
7:55 PM 73.4 °F - 55.4 °F 53% 29.79 in 10.0 mi Calm Calm - N/A   Clear
8:15 PM 71.6 °F - 55.4 °F 57% 29.80 in 10.0 mi Calm Calm - N/A   Clear
8:35 PM 71.6 °F - 55.4 °F 57% 29.81 in 10.0 mi Calm Calm - N/A   Clear
8:55 PM 69.8 °F - 55.4 °F 60% 29.82 in 10.0 mi Calm Calm - N/A   Clear
9:15 PM 69.8 °F - 55.4 °F 60% 29.83 in 10.0 mi ESE 6.9 mph - N/A   Clear
9:35 PM 69.8 °F - 55.4 °F 60% 29.84 in 10.0 mi Calm Calm - N/A   Clear
9:55 PM 68.0 °F - 55.4 °F 64% 29.84 in 10.0 mi Calm Calm - N/A   Clear
10:15 PM 68.0 °F - 53.6 °F 60% 29.85 in 10.0 mi Calm Calm - N/A   Clear
10:35 PM 69.8 °F - 53.6 °F 56% 29.86 in 10.0 mi Calm Calm - N/A   Clear
10:55 PM 69.8 °F - 53.6 °F 56% 29.86 in 10.0 mi Calm Calm - N/A   Clear
11:15 PM 69.8 °F - 53.6 °F 56% 29.86 in 10.0 mi Calm Calm - N/A   Clear
11:35 PM 69.8 °F - 53.6 °F 56% 29.87 in 10.0 mi Calm Calm - N/A   Clear
11:55 PM 69.8 °F - 53.6 °F 56% 29.87 in 10.0 mi Calm Calm - N/A   Clear